TimeEDT,TemperatureF,Dew PointF,Humidity,Sea Level PressureIn,VisibilityMPH,Wind Direction,Wind SpeedMPH,Gust SpeedMPH,PrecipitationIn,Events,Conditions,WindDirDegrees,DateUTC
12:53 AM,43.0,39.0,86,29.86,10.0,North,3.5,-,0.00,,Mostly Cloudy,10,2013-03-16 04:53:00
1:53 AM,43.0,37.9,82,29.85,10.0,Calm,Calm,-,N/A,,Scattered Clouds,0,2013-03-16 05:53:00
2:53 AM,42.1,39.0,89,29.83,10.0,Calm,Calm,-,N/A,,Mostly Cloudy,0,2013-03-16 06:53:00
3:53 AM,39.9,37.9,93,29.81,10.0,Calm,Calm,-,N/A,,Scattered Clouds,0,2013-03-16 07:53:00
4:53 AM,41.0,39.0,93,29.82,10.0,Calm,Calm,-,N/A,,Mostly Cloudy,0,2013-03-16 08:53:00
5:53 AM,43.0,39.9,89,29.81,8.0,SW,4.6,-,0.00,Rain,Light Rain,230,2013-03-16 09:53:00
6:53 AM,57.0,44.1,62,29.80,10.0,SW,15.0,-,0.02,,Overcast,230,2013-03-16 10:53:00
7:53 AM,55.0,42.1,62,29.81,10.0,SW,11.5,-,N/A,,Mostly Cloudy,230,2013-03-16 11:53:00
8:53 AM,57.0,43.0,59,29.82,10.0,WSW,13.8,-,N/A,,Scattered Clouds,240,2013-03-16 12:53:00
9:53 AM,61.0,42.1,50,29.81,10.0,SW,16.1,24.2,N/A,,Partly Cloudy,230,2013-03-16 13:53:00
10:53 AM,64.0,42.1,45,29.80,10.0,WSW,21.9,31.1,N/A,,Partly Cloudy,240,2013-03-16 14:53:00
11:53 AM,66.9,44.1,44,29.78,10.0,WSW,20.7,32.2,N/A,,Scattered Clouds,240,2013-03-16 15:53:00
12:53 PM,69.1,44.1,40,29.77,10.0,SW,23.0,35.7,N/A,,Scattered Clouds,220,2013-03-16 16:53:00
1:53 PM,71.1,45.0,39,29.76,10.0,SW,24.2,28.8,N/A,,Mostly Cloudy,230,2013-03-16 17:53:00
2:53 PM,71.1,45.0,39,29.73,10.0,SW,19.6,28.8,N/A,,Mostly Cloudy,220,2013-03-16 18:53:00
3:53 PM,70.0,45.0,41,29.73,10.0,WSW,16.1,28.8,N/A,,Mostly Cloudy,250,2013-03-16 19:53:00
4:53 PM,72.0,46.0,40,29.72,10.0,SW,20.7,31.1,N/A,,Mostly Cloudy,230,2013-03-16 20:53:00
5:53 PM,70.0,46.0,42,29.72,10.0,SW,17.3,25.3,N/A,,Mostly Cloudy,230,2013-03-16 21:53:00
6:53 PM,66.9,48.9,52,29.74,10.0,WSW,16.1,23.0,0.01,,Overcast,250,2013-03-16 22:53:00
7:53 PM,62.1,50.0,65,29.79,10.0,NNW,6.9,-,N/A,,Mostly Cloudy,330,2013-03-16 23:53:00
8:53 PM,64.0,48.9,58,29.81,10.0,Calm,Calm,-,N/A,,Mostly Cloudy,0,2013-03-17 00:53:00
9:53 PM,55.9,48.9,77,29.83,10.0,Calm,Calm,-,N/A,,Scattered Clouds,0,2013-03-17 01:53:00
10:53 PM,60.1,48.0,64,29.83,10.0,West,6.9,-,N/A,,Partly Cloudy,270,2013-03-17 02:53:00
11:53 PM,52.0,50.0,93,29.85,10.0,Calm,Calm,-,N/A,,Clear,0,2013-03-17 03:53:00